Powrót do katalogu

METEOR 1-14

AktywnyPogodaPO
NORAD 6392·PAYLOAD·🇷🇺 Russia

Wystrzelony Mar 20, 1973 z Plesetsk Cosmodrome

Loading…

Następne Przeloty (najbliższe 24 godziny)

TLE

ŚwieżeSource: Space-Track

Epoka: Sep 14, 2026, 13:37 UTC

1 06392U 73015A   26257.56776638 -.00000008  00000-0 -11294-4 0  9997
2 06392  81.2350 201.2827 0052129 307.2787  52.3635 14.08104627745278

Śledź METEOR 1-14 w czasie rzeczywistym z AllMySat

Download on the App Store